Weather History for Fairmont, MN

Change the Weather History Date:

Tuesday, December 18, 2012

  Actual Average Record
Temperature  
Mean Temperature 28 °F -  
Max Temperature 30 °F 27 °F 50 °F (1976)
Min Temperature 26 °F 10 °F -23 °F (1983)
Degree Days  
Heating Degree Days 37    
Moisture  
Dew Point 25 °F    
Average Humidity 88    
Maximum Humidity 93    
Minimum Humidity 86    
Precipitation  
Precipitation 0.00 in - - ()
Sea Level Pressure  
Sea Level Pressure 29.66 in    
Wind  
Wind Speed 7 mph (ESE)    
Max Wind Speed 16 mph    
Max Gust Speed -    
Visibility 5 miles    
Events      
Averages and records for this station are not official NWS values.
T = Trace of Precipitation, MM = Missing Value Source: NWS Daily Summary

Daily Weather History Graph

Daily Weather History Graph

Search for Another Location

Airport:

Trip Planner

Search our weather history database for the weather conditions in past years. The results will help you decide how hot, cold, wet, or windy it might be!

Date:

Astronomy

Dec. 18, 2012 Rise Set
Actual Time 7:46 AM CST 4:42 PM CST
Civil Twilight 7:13 AM CST 5:15 PM CST
Nautical Twilight 6:37 AM CST 5:51 PM CST
Astronomical Twilight 6:02 AM CST 6:26 PM CST
Moon 11:16 AM CST (12/18) 11:20 PM CST (12/18)
Length of Visible Light 10h 01m
Length of Day
8h 56m
Waxing Crescent, 35% of the Moon is Illuminated
Dec 18
Waxing Crescent
Dec 19
First Quarter
Dec 28
Full
Jan 4
Last Quarter
Jan 11
New

Hourly Weather History & Observations

Time (CST) Temp. Windchill Dew Point Humidity Pressure Visibility Wind Dir Wind Speed Gust Speed Precip Events Conditions
12:15 AM 26.6 °F 20.0 °F 24.8 °F 93% 29.64 in 8.0 mi SSE 5.8 mph - N/A   Overcast
12:35 AM 26.6 °F 21.2 °F 24.8 °F 93% 29.63 in 7.0 mi SSE 4.6 mph - N/A   Overcast
12:55 AM 26.6 °F 19.1 °F 24.8 °F 93% 29.63 in 7.0 mi SSE 6.9 mph - N/A   Overcast
1:15 AM 26.6 °F 18.2 °F 24.8 °F 93% 29.61 in 5.0 mi SE 8.1 mph - N/A   Overcast
1:35 AM 26.6 °F 17.5 °F 24.8 °F 93% 29.61 in 5.0 mi SE 9.2 mph - N/A   Overcast
1:55 AM 26.6 °F 18.2 °F 24.8 °F 93% 29.61 in 5.0 mi SE 8.1 mph - N/A   Overcast
2:15 AM 26.6 °F 19.1 °F 24.8 °F 93% 29.61 in 5.0 mi SE 6.9 mph - N/A   Overcast
2:35 AM 26.6 °F 19.1 °F 24.8 °F 93% 29.59 in 4.0 mi ESE 6.9 mph - N/A   Overcast
2:55 AM 26.6 °F 19.1 °F 24.8 °F 93% 29.59 in 4.0 mi ESE 6.9 mph - N/A   Overcast
3:15 AM 28.4 °F 19.7 °F 24.8 °F 86% 29.59 in 4.0 mi ESE 9.2 mph - N/A   Overcast
3:35 AM 28.4 °F 19.7 °F 24.8 °F 86% 29.58 in 5.0 mi ESE 9.2 mph - N/A   Overcast
3:55 AM 28.4 °F 19.7 °F 24.8 °F 86% 29.57 in 5.0 mi ESE 9.2 mph - N/A   Overcast
4:15 AM 28.4 °F 19.7 °F 24.8 °F 86% 29.56 in 5.0 mi ESE 9.2 mph - N/A   Overcast
4:35 AM 28.4 °F 19.7 °F 24.8 °F 86% 29.56 in 5.0 mi ESE 9.2 mph - N/A   Overcast
4:55 AM 28.4 °F 18.5 °F 24.8 °F 86% 29.55 in 5.0 mi East 11.5 mph - N/A   Overcast
5:15 AM 28.4 °F 19.7 °F 24.8 °F 86% 29.55 in 5.0 mi ESE 9.2 mph - N/A   Overcast
6:15 AM 28.4 °F 19.7 °F 24.8 °F 86% 29.53 in 5.0 mi East 9.2 mph - N/A   Overcast
6:35 AM 28.4 °F 19.1 °F 24.8 °F 86% 29.53 in 5.0 mi East 10.4 mph - N/A   Overcast
6:55 AM 26.6 °F 18.2 °F 24.8 °F 93% 29.54 in 4.0 mi East 8.1 mph - N/A   Overcast
7:15 AM 26.6 °F 18.2 °F 24.8 °F 93% 29.55 in 1.0 mi East 8.1 mph - N/A   Overcast
7:35 AM 26.6 °F 18.2 °F 24.8 °F 93% 29.55 in 0.2 mi ENE 8.1 mph - N/A   Overcast
7:55 AM 26.6 °F 17.5 °F 24.8 °F 93% 29.55 in 0.2 mi ENE 9.2 mph - N/A   Overcast
8:15 AM 26.6 °F 17.5 °F 24.8 °F 93% 29.56 in 0.2 mi NE 9.2 mph - N/A   Overcast
8:35 AM 26.6 °F 17.5 °F 24.8 °F 93% 29.56 in 0.2 mi NE 9.2 mph - N/A   Overcast
8:55 AM 26.6 °F 18.2 °F 24.8 °F 93% 29.57 in 0.2 mi NE 8.1 mph - N/A   Overcast
9:15 AM 26.6 °F 16.8 °F 24.8 °F 93% 29.57 in 0.5 mi NE 10.4 mph - N/A   Overcast
9:35 AM 26.6 °F 16.2 °F 24.8 °F 93% 29.57 in 0.8 mi NE 11.5 mph - N/A   Overcast
9:55 AM 26.6 °F 17.5 °F 24.8 °F 93% 29.58 in 0.8 mi ENE 9.2 mph - N/A   Overcast
10:15 AM 26.6 °F 18.2 °F 24.8 °F 93% 29.59 in 1.2 mi NE 8.1 mph - N/A   Overcast
10:35 AM 26.6 °F 18.2 °F 24.8 °F 93% 29.60 in 1.5 mi NE 8.1 mph - N/A   Overcast
10:55 AM 26.6 °F 18.2 °F 24.8 °F 93% 29.61 in 3.0 mi NNE 8.1 mph - N/A   Overcast
11:15 AM 26.6 °F 18.2 °F 24.8 °F 93% 29.62 in 3.0 mi North 8.1 mph - N/A   Overcast
11:35 AM 26.6 °F 18.2 °F 24.8 °F 93% 29.62 in 3.0 mi North 8.1 mph - N/A   Overcast
11:55 AM 28.4 °F 21.2 °F 24.8 °F 86% 29.62 in 4.0 mi North 6.9 mph - N/A   Overcast
12:15 PM 28.4 °F 19.7 °F 24.8 °F 86% 29.63 in 4.0 mi North 9.2 mph - N/A   Overcast
12:35 PM 28.4 °F 20.4 °F 24.8 °F 86% 29.63 in 5.0 mi North 8.1 mph - N/A   Overcast
12:55 PM 28.4 °F 19.7 °F 24.8 °F 86% 29.63 in 4.0 mi North 9.2 mph - N/A   Overcast
1:15 PM 28.4 °F 21.2 °F 24.8 °F 86% 29.63 in 5.0 mi NNE 6.9 mph - N/A   Overcast
1:35 PM 28.4 °F 21.2 °F 24.8 °F 86% 29.64 in 5.0 mi North 6.9 mph - N/A   Overcast
1:55 PM 28.4 °F 22.2 °F 24.8 °F 86% 29.64 in 4.0 mi North 5.8 mph - N/A   Overcast
2:15 PM 28.4 °F 24.6 °F 24.8 °F 86% 29.65 in 4.0 mi North 3.5 mph - N/A   Overcast
2:35 PM 28.4 °F 23.3 °F 24.8 °F 86% 29.65 in 4.0 mi NNE 4.6 mph - N/A   Overcast
2:55 PM 28.4 °F - 24.8 °F 86% 29.67 in 5.0 mi Calm Calm - N/A   Overcast
3:15 PM 28.4 °F 24.6 °F 24.8 °F 86% 29.67 in 5.0 mi NNW 3.5 mph - N/A   Overcast
3:35 PM 28.4 °F - 24.8 °F 86% 29.68 in 5.0 mi Calm Calm - N/A   Overcast
3:55 PM 28.4 °F - 24.8 °F 86% 29.68 in 5.0 mi Calm Calm - N/A   Overcast
4:15 PM 28.4 °F - 24.8 °F 86% 29.70 in 4.0 mi Calm Calm - N/A   Overcast
4:35 PM 28.4 °F 23.3 °F 24.8 °F 86% 29.71 in 4.0 mi WSW 4.6 mph - N/A   Overcast
4:55 PM 28.4 °F - 24.8 °F 86% 29.71 in 4.0 mi Calm Calm - N/A   Overcast
5:15 PM 28.4 °F 24.6 °F 24.8 °F 86% 29.72 in 5.0 mi SSE 3.5 mph - N/A   Overcast
5:35 PM 28.4 °F 23.3 °F 24.8 °F 86% 29.73 in 5.0 mi SW 4.6 mph - N/A   Overcast
5:55 PM 28.4 °F 21.2 °F 24.8 °F 86% 29.75 in 5.0 mi SW 6.9 mph - N/A   Overcast
6:15 PM 28.4 °F 23.3 °F 24.8 °F 86% 29.74 in 5.0 mi SW 4.6 mph - N/A   Overcast
6:35 PM 28.4 °F 23.3 °F 24.8 °F 86% 29.73 in 5.0 mi South 4.6 mph - N/A   Overcast
6:55 PM 28.4 °F 23.3 °F 24.8 °F 86% 29.75 in 5.0 mi SSW 4.6 mph - N/A   Overcast
7:15 PM 28.4 °F 21.2 °F 24.8 °F 86% 29.76 in 5.0 mi SSW 6.9 mph - N/A   Overcast
7:35 PM 28.4 °F 22.2 °F 24.8 °F 86% 29.76 in 5.0 mi SSW 5.8 mph - N/A   Overcast
7:55 PM 28.4 °F 21.2 °F 24.8 °F 86% 29.77 in 5.0 mi SSW 6.9 mph - N/A   Overcast
8:15 PM 28.4 °F 20.4 °F 24.8 °F 86% 29.78 in 5.0 mi SSW 8.1 mph - N/A   Overcast
8:35 PM 28.4 °F 21.2 °F 24.8 °F 86% 29.77 in 5.0 mi SSW 6.9 mph - N/A   Overcast
8:55 PM 28.4 °F 21.2 °F 26.6 °F 93% 29.78 in 5.0 mi SW 6.9 mph - N/A   Overcast
9:15 PM 30.2 °F 22.6 °F 26.6 °F 86% 29.78 in 5.0 mi SSW 8.1 mph - N/A   Overcast
9:35 PM 30.2 °F 22.6 °F 26.6 °F 86% 29.79 in 6.0 mi SSW 8.1 mph - N/A   Overcast
9:55 PM 30.2 °F 20.8 °F 26.6 °F 86% 29.80 in 6.0 mi WSW 11.5 mph - N/A   Overcast
10:15 PM 30.2 °F 20.8 °F 26.6 °F 86% 29.80 in 10.0 mi West 11.5 mph - N/A   Overcast
10:35 PM 30.2 °F 21.3 °F 26.6 °F 86% 29.81 in 10.0 mi WSW 10.4 mph - N/A   Overcast
10:55 PM 30.2 °F 20.2 °F 26.6 °F 86% 29.82 in 10.0 mi WSW 12.7 mph - N/A   Overcast
11:15 PM 30.2 °F 19.8 °F 26.6 °F 86% 29.83 in 10.0 mi West 13.8 mph - N/A   Overcast
11:35 PM 30.2 °F 18.9 °F 26.6 °F 86% 29.83 in 10.0 mi West 16.1 mph - N/A   Overcast
11:55 PM 30.2 °F 18.9 °F 26.6 °F 86% 29.83 in 10.0 mi West 16.1 mph - N/A   Overcast